Weather History for Albemarle, NC

Change the Weather History Date:

Wednesday, December 5, 2012

  Actual Average (KHBI) Record (KHBI)
Temperature  
Mean Temperature 54 °F -  
Max Temperature 66 °F 56 °F 75 °F (1982)
Min Temperature 41 °F 33 °F 19 °F (1969)
Degree Days  
Heating Degree Days 12    
Growing Degree Days 4 (Base 50)    
Moisture  
Dew Point 51 °F    
Average Humidity 85    
Maximum Humidity 100    
Minimum Humidity 54    
Precipitation  
Precipitation 0.00 in - - ()
Sea Level Pressure  
Sea Level Pressure 30.21 in    
Wind  
Wind Speed 3 mph (WNW)    
Max Wind Speed 10 mph    
Max Gust Speed 16 mph    
Visibility 10 miles    
Events Rain    
Averages and records for this station are not official NWS values.
T = Trace of Precipitation, MM = Missing Value Source: NWS Daily Summary

Daily Weather History Graph

Daily Weather History Graph

Search for Another Location

Airport:

Trip Planner

Search our weather history database for the weather conditions in past years. The results will help you decide how hot, cold, wet, or windy it might be!

Date:

Astronomy

Dec. 05, 2012 Rise Set
Actual Time 7:15 AM EST 5:07 PM EST
Civil Twilight 6:47 AM EST 5:35 PM EST
Nautical Twilight 6:15 AM EST 6:07 PM EST
Astronomical Twilight 5:44 AM EST 6:38 PM EST
Moon 11:44 PM EST (12/5) 11:47 AM EST (12/5)
Length of Visible Light 10h 48m
Length of Day
9h 52m
Waning Gibbous, 60% of the Moon is Illuminated
Dec 5
Waning Gibbous
Dec 6
Last Quarter
Dec 13
New
Dec 20
First Quarter
Dec 28
Full

Hourly Weather History & Observations

Time (EST) Temp. Windchill Dew Point Humidity Pressure Visibility Wind Dir Wind Speed Gust Speed Precip Events Conditions
12:15 AM 48.7 °F - 46.9 °F 93% 30.23 in 10.0 mi Calm Calm - N/A   Clear
12:35 AM 49.6 °F - 49.1 °F 98% 30.22 in 10.0 mi Calm Calm - N/A   Clear
12:55 AM 47.8 °F - 47.5 °F 99% 30.21 in 7.0 mi Calm Calm - N/A   Clear
1:15 AM 48.6 °F - 48.2 °F 99% 30.21 in 10.0 mi Calm Calm - N/A   Clear
1:35 AM 46.8 °F - 45.7 °F 96% 30.21 in 10.0 mi Calm Calm - N/A   Clear
1:55 AM 47.5 °F - 46.6 °F 97% 30.21 in 7.0 mi Calm Calm - N/A   Clear
2:15 AM 48.4 °F - 48.0 °F 99% 30.21 in 7.0 mi WSW 3.5 mph - N/A   Clear
2:35 AM 50.4 °F - 50.2 °F 99% 30.21 in 10.0 mi SW 4.6 mph - N/A   Clear
2:55 AM 52.0 °F - 52.0 °F 100% 30.20 in 10.0 mi SW 4.6 mph - N/A   Clear
3:15 AM 52.7 °F - 52.5 °F 99% 30.19 in 10.0 mi SW 3.5 mph - N/A   Clear
3:35 AM 52.7 °F - 52.5 °F 99% 30.19 in 7.0 mi Calm Calm - N/A   Scattered Clouds
3:55 AM 52.7 °F - 52.7 °F 100% 30.19 in 7.0 mi SW 3.5 mph - N/A   Mostly Cloudy
4:15 AM 54.3 °F - 54.3 °F 100% 30.19 in 10.0 mi SW 3.5 mph - N/A   Overcast
4:35 AM 54.7 °F - 54.5 °F 99% 30.19 in 10.0 mi SW 4.6 mph - N/A   Overcast
4:55 AM 55.6 °F - 55.0 °F 98% 30.18 in 10.0 mi SW 4.6 mph - N/A   Overcast
5:15 AM 55.6 °F - 54.9 °F 97% 30.18 in 10.0 mi SW 3.5 mph - N/A   Overcast
5:35 AM 55.4 °F - 54.7 °F 97% 30.18 in 10.0 mi SW 3.5 mph - N/A   Overcast
5:55 AM 55.9 °F - 54.9 °F 96% 30.18 in 10.0 mi SW 4.6 mph - N/A   Overcast
6:15 AM 55.4 °F - 54.5 °F 97% 30.18 in 10.0 mi SW 4.6 mph - N/A   Overcast
6:35 AM 55.6 °F - 54.7 °F 97% 30.19 in 10.0 mi SW 4.6 mph - N/A   Mostly Cloudy
6:55 AM 55.4 °F - 54.5 °F 97% 30.19 in 10.0 mi SW 5.8 mph - N/A   Scattered Clouds
7:15 AM 55.2 °F - 54.3 °F 97% 30.20 in 10.0 mi SW 5.8 mph - N/A   Scattered Clouds
7:35 AM 57.2 °F - 55.4 °F 94% 30.20 in 10.0 mi SW 5.8 mph - N/A   Overcast
7:55 AM 57.2 °F - 55.4 °F 94% 30.21 in 10.0 mi SW 4.6 mph - N/A   Overcast
9:35 AM 62.6 °F - 57.2 °F 82% 30.22 in 10.0 mi WSW 4.6 mph - N/A   Mostly Cloudy
9:55 AM 65.3 °F - 56.8 °F 74% 30.22 in 10.0 mi WSW 4.6 mph - N/A   Overcast
10:15 AM 66.0 °F - 56.3 °F 71% 30.22 in 10.0 mi West 8.1 mph - N/A   Overcast
10:35 AM 65.3 °F - 56.1 °F 72% 30.22 in 10.0 mi West 5.8 mph - N/A   Light Drizzle
10:55 AM 64.8 °F - 56.5 °F 74% 30.21 in 10.0 mi WSW 6.9 mph - N/A   Light Drizzle
11:15 AM 64.9 °F - 56.1 °F 73% 30.21 in 10.0 mi WSW 6.9 mph - N/A   Overcast
11:35 AM 64.9 °F - 56.3 °F 74% 30.21 in 10.0 mi WNW 4.6 mph - N/A   Overcast
11:55 AM 65.3 °F - 56.7 °F 74% 30.20 in 10.0 mi North 6.9 mph - N/A   Overcast
12:15 PM 64.6 °F - 56.5 °F 75% 30.20 in 10.0 mi NNW 5.8 mph - N/A   Overcast
12:35 PM 64.0 °F - 55.8 °F 74% 30.20 in 10.0 mi North 6.9 mph - N/A   Overcast
12:55 PM 63.7 °F - 55.6 °F 75% 30.19 in 10.0 mi NNW 6.9 mph - N/A   Overcast
1:15 PM 63.7 °F - 55.8 °F 75% 30.19 in 10.0 mi NNW 6.9 mph - N/A   Overcast
1:35 PM 63.5 °F - 56.5 °F 78% 30.18 in 10.0 mi North 4.6 mph - N/A Rain Rain
1:55 PM 63.7 °F - 56.1 °F 76% 30.17 in 10.0 mi North 5.8 mph - N/A   Overcast
2:15 PM 64.0 °F - 55.6 °F 74% 30.17 in 10.0 mi NNE 6.9 mph - N/A   Overcast
2:35 PM 63.7 °F - 55.2 °F 74% 30.17 in 10.0 mi NE 6.9 mph - N/A   Overcast
2:55 PM 63.0 °F - 53.6 °F 71% 30.17 in 10.0 mi NE 8.1 mph 16.1 mph N/A   Overcast
3:15 PM 62.6 °F - 49.6 °F 63% 30.17 in 10.0 mi NE 6.9 mph - N/A   Overcast
3:35 PM 62.1 °F - 49.1 °F 62% 30.18 in 10.0 mi NNE 8.1 mph - N/A Rain Light Rain
3:55 PM 60.6 °F - 44.4 °F 55% 30.19 in 10.0 mi North 10.4 mph - N/A   Light Drizzle
4:15 PM 59.0 °F - 42.4 °F 54% 30.19 in 10.0 mi North 9.2 mph - N/A Rain Rain
4:35 PM 56.5 °F - 45.7 °F 67% 30.20 in 10.0 mi NNE 4.6 mph - N/A Rain Rain
4:55 PM 55.9 °F - 47.7 °F 74% 30.20 in 10.0 mi Calm Calm - N/A   Light Drizzle
5:15 PM 55.4 °F - 48.7 °F 78% 30.21 in 10.0 mi Calm Calm - N/A Rain Rain
5:35 PM 54.7 °F - 50.4 °F 85% 30.21 in 10.0 mi Calm Calm - N/A   Overcast
5:55 PM 55.0 °F - 52.0 °F 89% 30.22 in 10.0 mi Calm Calm - N/A   Overcast
6:15 PM 54.9 °F - 51.6 °F 89% 30.22 in 10.0 mi Calm Calm - N/A   Overcast
6:35 PM 54.7 °F - 52.2 °F 91% 30.22 in 10.0 mi Calm Calm - N/A   Overcast
6:55 PM 54.3 °F - 50.9 °F 88% 30.22 in 10.0 mi Calm Calm - N/A   Overcast
7:15 PM 54.7 °F - 50.5 °F 86% 30.23 in 10.0 mi Calm Calm - N/A   Overcast
7:35 PM 53.6 °F - 49.6 °F 86% 30.23 in 10.0 mi Calm Calm - N/A   Overcast
7:55 PM 53.4 °F - 50.9 °F 91% 30.23 in 10.0 mi Calm Calm - N/A   Overcast
8:15 PM 52.9 °F - 51.1 °F 94% 30.23 in 10.0 mi Calm Calm - N/A   Overcast
8:35 PM 53.1 °F - 49.6 °F 88% 30.23 in 10.0 mi Calm Calm - N/A   Overcast
8:55 PM 52.9 °F - 48.0 °F 84% 30.23 in 10.0 mi Calm Calm - N/A   Overcast
9:15 PM 54.5 °F - 44.1 °F 68% 30.24 in 10.0 mi Calm Calm - N/A   Overcast
9:35 PM 51.8 °F - 46.9 °F 83% 30.23 in 10.0 mi Calm Calm - N/A   Overcast
9:55 PM 50.9 °F - 47.1 °F 87% 30.23 in 10.0 mi NNE 3.5 mph - N/A   Mostly Cloudy
10:15 PM 46.6 °F - 44.1 °F 91% 30.23 in 10.0 mi North 4.6 mph - N/A   Scattered Clouds
10:35 PM 47.8 °F - 42.1 °F 80% 30.24 in 10.0 mi Calm Calm - N/A   Clear
10:55 PM 45.1 °F 42.0 °F 42.3 °F 90% 30.24 in 10.0 mi NNE 5.8 mph - N/A   Clear
11:15 PM 43.3 °F 40.7 °F 41.2 °F 92% 30.24 in 10.0 mi NNE 4.6 mph - N/A   Clear
11:35 PM 41.4 °F 39.4 °F 37.4 °F 86% 30.24 in 10.0 mi NE 3.5 mph - N/A   Clear
11:55 PM 44.4 °F - 34.7 °F 69% 30.24 in 10.0 mi Calm Calm - N/A   Clear